AirNav   Everest Fuels
 
 1556 users online  

WY05 Skyview Airpark
Cheyenne, Wyoming, USA

GOING TO CHEYENNE?


FAA INFORMATION EFFECTIVE 10 SEPTEMBER 2020

Location

FAA Identifier: WY05
Lat/Long: 41-13-03.9700N 104-35-11.8000W
41-13.066167N 104-35.196667W
41.2177694,-104.5866111
(estimated)
Elevation: 5838 ft. / 1779 m (estimated)
Variation: 11E (1985)
From city: 15 miles E of CHEYENNE, WY
Time zone: UTC -6 (UTC -7 during Standard Time)
Zip code: 82009

Airport Operations

Airport use: Private use. Permission required prior to landing
Activation date: 10/1973
Control tower: no
ARTCC: DENVER CENTER
FSS: CASPER FLIGHT SERVICE STATION
Attendance: UNATNDD
Wind indicator: lighted
Segmented circle: yes

Airport Communications

WX ASOS at CYS (11 nm W): PHONE 307-632-7680

Nearby radio navigation aids

VOR radial/distance  VOR name  Freq  Var
CYSr074/8.4CHEYENNE VORTAC113.1013E

Airport Services

Airframe service: NONE
Powerplant service: NONE

Runway Information

Runway 8/26

Dimensions: 3900 x 70 ft. / 1189 x 21 m
Surface: turf/gravel
RUNWAY 8  RUNWAY 26
Traffic pattern: leftleft
Displaced threshold: no300 ft.
DSPLD THR MKD WITH FLAGS.
Obstructions: 50 ft. pline, marked, 1300 ft. from runway40 ft. pline, 2600 ft. from runway

Airport Ownership and Management from official FAA records

Ownership: Privately-owned
Owner: SAPA, INC.
3672 AVIATOR CT.
CHEYENNE, WY 82009
Phone (307) 630-4775
Manager: CHRIS RUSSELL
3672 AVIATOR CT.
CHEYENNE, WY 82009
Phone (307) 630-4775

Airport Operational Statistics

Aircraft based on the field: 11
Single engine airplanes: 11
    

Additional Remarks

WILDLIFE, ROLLING & MOWING INVOF RWY & TXY.
STRONG CROSSWINDS FORM TOPOGRAPHIC TURB INVOF BLDG AND TREES.
RD N OF ARPT MAY BE CONFUSED FOR RWY.
FOR ADVANCE LNDG PERMISSION AND INFO - CTC AMGR.
FOR CD CTC CHEYENNE APCH AT 307-772-6032, WHEN APCH CLSD CTC DENVER ARTCC AT 303-651-4257.

Instrument Procedures

There are no published instrument procedures at WY05.

Some nearby airports with instrument procedures:

KCYS - Cheyenne Regional Airport/Jerry Olson Field (11 nm W)
KIBM - Kimball Municipal Airport/Robert E Arraj Field (41 nm E)
KGXY - Greeley-Weld County Airport (47 nm S)
KLAR - Laramie Regional Airport (49 nm W)
KFNL - Northern Colorado Regional Airport (50 nm SW)
 
Loc | Ops | Rwys | IFR | FBO | Links
Com | Nav | Svcs | Stats | Notes

AirBoss

 
Area around WY05 (Skyview Airpark)
 
Road maps at: MapQuest Bing Google
 
Aerial photo
WARNING: Photo may not be current or correct
Aerial photo of WY05 (Skyview Airpark)
Photo by Dan Glandt
Photo taken 26-Apr-2015
looking west.

Do you have a better or more recent aerial photo of Skyview Airpark that you would like to share? If so, please send us your photo.

 
Sectional chart

 
Airport distance calculator
Flying to Skyview Airpark? Find the distance to fly.

From to WY05

Sunrise and sunset
Times for 25-Sep-2020
 Local
(UTC-6)
 Zulu
(UTC)
Morning civil twilight06:2312:23
Sunrise06:5112:51
Sunset18:4800:48
Evening civil twilight19:1601:16

Current date and time
Zulu (UTC)  25-Sep-2020 16:31:34
Local (UTC-6)  25-Sep-2020 10:31:34
 
METAR
KCYS 
11nm W 
251553Z 36005KT 10SM CLR 17/M01 A3010 RMK AO2 SLP122 T01671006
KFEW 
14nm W 
251559Z AUTO 04003KT 10SM CLR 17/M01 A3012 RMK AO2 SLP140 T01651011 $
K82V 
21nm E 
251615Z AUTO 00000KT 10SM CLR 17/00 A3007 RMK AO2
TAF
KCYS 
11nm W 
251122Z 2512/2612 28010KT P6SM FEW250 FM251600 22010KT P6SM SKC FM251800 22012G22KT 6SM HZ FEW150 FM260100 22009KT P6SM SCT200 FM260600 29012KT P6SM SKC
NOTAMs
Click for the latest NOTAMs
NOTAMs are issued by the DoD/FAA and will open in a separate window not controlled by AirNav.

 

 
 

Would you like to see your business listed on this page?

 If your business provides an interesting product or service to pilots, flight crews, aircraft, or users of the Skyview Airpark, you should consider listing it here.  To start the listing process, click on the button below
 
Add a business
 

Other Pages about Skyview Airpark

Update a link
 
Copyright © AirNav, LLC. All rights reserved. Privacy Policy  Contact